Regional Weather Roundup
Issued by NWS

Home | Current Version | Previous Version | Graphics & Text | Print | Product List | Glossary On
Versions: 1 2 3 4 5 6 7 8 9 10 11 12 13 14 15 16 17 18 19 20 21 22 23 24 25 26 27 28 29 30 31 32 33 34 35 36 37 38 39 40 41 42 43 44 45 46 47 48 49 50
000
ASUS43 KLMK 242102
RWRKY
KENTUCKY REGIONAL WEATHER ROUNDUP
NATIONAL WEATHER SERVICE LOUISVILLE KY
500 PM EDT THU JUL 24 2014

NOTE "FAIR" INDICATES FEW OR NO CLOUDS BELOW 12,000 FEET
WITH NO SIGNIFICANT WEATHER AND/OR OBSTRUCTIONS TO VISIBILITY.

KYZ001>023-026-027-061>063-070>075-242200-
WESTERN AND SOUTH CENTRAL KENTUCKY

CITY           SKY/WX    TMP DP  RH WIND       PRES   REMARKS
PADUCAH        MOSUNNY   82  61  48 N10       30.03F
HENDERSON      MOSUNNY   79  55  44 N8        30.04S
OWENSBORO      PTSUNNY   80  55  42 N9        30.04S
HOPKINSVILLE   MOSUNNY   81  58  46 N12       30.01F
BOWLING GREEN  MOSUNNY   82  56  40 N8        30.01S
GLASGOW        PTSUNNY   81  55  41 N7        30.01S
$$

KYZ024-025-028>034-038-045-046-053-242200-
NORTH CENTRAL KENTUCKY

CITY           SKY/WX    TMP DP  RH WIND       PRES   REMARKS
LOUISVILLE/SDF PTSUNNY   78  54  43 N12       30.04F
LOUISVILLE/LOU MOSUNNY   79  54  41 N9G17     30.05S
FORT KNOX      PTSUNNY   78  57  48 N8        30.03F
$$

KYZ035>037-039>044-047>052-055>060-089>105-242200-
NORTHEAST KENTUCKY

CITY           SKY/WX    TMP DP  RH WIND       PRES   REMARKS
LEXINGTON      PTSUNNY   77  56  48 N9        30.04S
COVINGTON      MOSUNNY   74  52  46 N13       30.05F
FRANKFORT      PTSUNNY   76  54  46 N10       30.04S
$$

KYZ054-064>069-076>088-106>120-242200-
SOUTHEAST KENTUCKY

CITY           SKY/WX    TMP DP  RH WIND       PRES   REMARKS
JACKSON        CLOUDY    69  61  75 CALM      30.04S
LONDON         CLOUDY    70  61  73 N10       30.04R
SOMERSET       CLOUDY    72  59  64 N9G17     30.04S
MIDDLESBORO    CLOUDY    73  66  80 N7        30.01R
MONTICELLO     MOCLDY    75  66  73 N8        30.04S
$$



USA.gov is the U.S. government's official web portal to all federal, state and local government web resources and services.